{"data":{"norad_id":51859,"intl_designator":"2022-022H","name":"STARLINK-3560","alt_names":[],"object_type":"PAYLOAD","status":"ACTIVE","operator":null,"country":"US","launch_date":"2022-03-03","launch_site_code":"AFETR","launch_vehicle":null,"mission":null,"orbit_class":"UNKNOWN","rcs_meters":null,"size_class":null,"mass_kg":null,"dimensions":null,"purposes":["comms"],"wikipedia_slug":null,"has_3d_model":false,"image_url":null,"decayed_at":null,"tle_current":{"epoch":"2026-05-24T23:08:44.623104Z","epoch_age_seconds":78937,"freshness":"FRESH","line1":"1 51859U 22022H   26144.96440536 -.00001196  00000+0 -57043-4 0  9991","line2":"2 51859  53.2137  26.7174 0001713  89.0165 271.1023 15.08841874234673","mean_motion":15.08841874,"eccentricity":0.0001713,"inclination_deg":53.2137,"raan_deg":26.7174,"arg_perigee_deg":89.0165,"mean_anomaly_deg":271.1023,"bstar":-5.7043e-5,"rev_number":23467,"period_min":95.437436143159,"perigee_km":538.55262897232,"apogee_km":540.92269283115,"semimajor_km":6917.8746609017,"source":"CELESTRAK","updated_at":"2026-05-25T13:38:16.960735Z"}}}